星链-37963(STARLINK-37963)

导读

STARLINK-37963(NORAD编号69709)是美国太空探索技术公司(SpaceX)星链低轨宽带互联网星座的现役组网卫星,属于V2 mini优化型卫星批次,于2026年6月由猎鹰9号火箭发射入轨,部署于近地轨道(LEO),轨道倾角53°,当前处于在轨运行状态。该卫星主要承担全球低轨卫星互联网信号传输与网络覆盖任务,助力星链星座扩容,为全球多区域提供高速低延迟的卫星互联网接入服务,是SpaceX持续推进星链组网建设的组成部分。

Basic Information
目录编号:
69709
目录名称:
STARLINK-37963
国际标识:
2026-147F
轨道中心:
EARTH
卫星名称:
星链-37963
卫星全名:
星链-37963(STARLINK-37963)
卫星状态:
在轨 (已飞行68 天)
发射日期:
2026-06-28 UTC
国别 :
美国 (US)
星等 :
--
Orbit Information
数据来源 国际轨道数据 AOE轨道数据
星历时间 2026-09-02T21:43:56+0800
1天前
查看轨道信息
2026-08-31T23:00:00+0800
3天前
查看轨道信息
半长轴 6843.694km 6843.724km
偏心率 0.0001075 0.0000473
轨道倾角 97.283° 97.285°
近地点辐角 114.761° 84.380°
升交点赤经 282.147° 280.228°
平近点角 245.375° 333.596°
近地点 464.821km 465.263km
远地点 466.293km 465.911km
周期 93.906分钟 93.907分钟
每日圈数 15.334404 15.334306
Detailed Information
固有亮度:
5
最大亮度:
2.5
卫星平台:
Starlink V1.0
覆盖范围:
全球
运营商:
太空探索技术公司
运营商所在国:
美国
制造商(研发单位):
太空探索技术公司
制造商所在国:
美国
使用方式:
暂无
Satellite Introduction
Starlink 计划是 SpaceX 推出的全球卫星互联网项目,通过发射低轨道卫星,为全球尤其是偏远地区提供高速、低延迟的互联网服务。自 2019 年起,Starlink 已部署数千颗卫星,旨在缩小全球数字鸿沟,推动互联网普及。该项目还为军事、航空等行业提供通信支持,带来广泛经济效益。
2D Orbit Map
3D Orbit Map
Orbit Altitude Analysis Chart
Orbit Inclination Analysis Chart
Orbit Comprehensive Analysis Chart
View Comprehensive Chart
Conjunction Data List
Event ID Objects TCA Miss Dist (km) Collision Risk Probability Collision Risk Index (CRI) Action
CDM_260904-053105-314406-970922
2026-09-04T
05:31:28+0000
2.306 km
极远距离
2.028252E-6 低风险 0.41
CDM_260904-031805-237006-970922
2026-09-04T
03:18:25+0000
2.450 km
极远距离
1.819368E-6 低风险 0.4
CDM_260905-090305-816406-970921
2026-09-05T
09:03:56+0000
2.475 km
极远距离
1.78499E-6 低风险 0.4
CDM_260830-213706-532806-970921
2026-08-30T
21:37:39+0000
2.740 km
极远距离
1.501467E-6 低风险 0.39
CDM_260905-121606-295006-970921
2026-09-05T
12:16:47+0000
2.750 km
极远距离
1.497561E-6 低风险 0.39
CDM_260901-193606-232006-970921
2026-09-01T
19:36:07+0000
2.843 km
极远距离
1.422666E-6 低风险 0.38
CDM_260904-150705-233606-970921
2026-09-04T
15:07:06+0000
2.861 km
极远距离
1.417978E-6 低风险 0.38
CDM_260904-023105-237006-970921
2026-09-04T
02:31:27+0000
2.916 km
极远距离
1.385057E-6 低风险 0.38
CDM_260904-155405-233606-970922
2026-09-04T
15:54:04+0000
3.000 km
极远距离
1.336156E-6 低风险 0.38